Miscellaneous Local Product
Issued by NWS Hastings, NE

Home | Current Version | Previous Version | Graphics & Text | Print | Product List | Glossary On
Versions: 1 2 3 4 5 6 7 8 9 10 11 12 13 14 15 16 17 18 19 20 21 22 23 24 25 26 27 28 29 30 31 32 33 34 35 36 37 38 39 40 41 42 43 44 45 46 47 48 49 50
000
AXUS43 KGID 292202
MISGRI

GID CWA HOURLY WEATHER ROUNDUP
NATIONAL WEATHER SERVICE HASTINGS NE
500 PM CDT SUN MAR 29 2015

NOTE: "FAIR" INDICATES FEW OR NO CLOUDS BELOW 12,000 FEET WITH NO
SIGNIFICANT WEATHER AND/OR OBSTRUCTIONS TO VISIBILITY.

...SOUTH CENTRAL NEBRASKA...

CITY           SKY/WX    TMP DP  RH WIND       PRES   REMARKS
GRAND ISLAND   SUNNY     63  16  16 N25       30.12R
HASTINGS       SUNNY     64  17  16 N20G29    30.11S
KEARNEY        SUNNY     64  12  13 NW18G24   30.13R
ORD            SUNNY     62  10  13 N18       30.10F
YORK           SUNNY     61  23  23 N21G30    30.09R
AURORA         SUNNY     62  22  21 N25G31    30.11R
LEXINGTON      SUNNY     64  11  13 N18G26    30.15R
HOLDREGE       SUNNY     63  10  12 N18G24    30.14R
HEBRON         SUNNY     64  23  21 N17G25    30.08S

...NEBRASKA PANHANDLE...

CITY           SKY/WX    TMP DP  RH WIND       PRES   REMARKS
CHADRON        SUNNY     64  27  24 W17G23    30.10F
ALLIANCE       SUNNY     63  24  22 W13       30.13F
SCOTTSBLUFF    MOSUNNY   64  23  21 N6        30.13F
SIDNEY         SUNNY     61  24  24 NW12G20   30.17F

...WESTERN AND NORTH CENTRAL NEBRASKA...

CITY           SKY/WX    TMP DP  RH WIND       PRES   REMARKS
VALENTINE      SUNNY     62  17  17 NW12G20   30.11F
AINSWORTH      SUNNY     60  17  18 NW16      30.12S
ONEILL         SUNNY     61  17  17 NW20G25   30.10S
BROKEN BOW     SUNNY     63  17  17 NW16G31   30.13S
IMPERIAL         N/A     64  19  17 N10G18    30.16F
NORTH PLATTE   SUNNY     63  17  17 NW16      30.14F
MCCOOK         SUNNY     67  18  15 N17G26    30.15F

...EASTERN NEBRASKA...

CITY           SKY/WX    TMP DP  RH WIND       PRES   REMARKS
NORFOLK        SUNNY     62  22  21 NW22G32   30.06R
SO SIOUX CITY  SUNNY     63  21  20 N22G36    30.01R
COLUMBUS       SUNNY     61  25  25 N15G29    30.09S
ALBION         SUNNY     61  16  17 N15G22    30.09S
OMAHA EPPLEY   SUNNY     62  28  27 N22G31    30.03R
MILLARD        SUNNY     62  29  29 NW14G30   30.04R
LINCOLN        SUNNY     64  26  23 N25       30.07S
NEBRASKA CITY  SUNNY     61  29  30 NW22G28   30.04S
BEATRICE       SUNNY     62  32  32 N25G31    30.08R
FALLS CITY     SUNNY     61  35  37 N16G30    30.04R

...NORTHERN KANSAS...

CITY           SKY/WX    TMP DP  RH WIND       PRES   REMARKS
GOODLAND       SUNNY     65  18  16 N15       30.18F
HILL CITY      SUNNY     68  21  16 N21G30    30.14F
NORTON         CLEAR     68  10  10 NW15G23   30.13F
PHILLIPSBURG   SUNNY     70  10  10 N15G23    30.12S
SMITH CENTER   SUNNY     66  18  15 N14G25    30.11S
BELOIT         SUNNY     70  25  18 N16G24    30.07S
HAYS           SUNNY     70  25  18 N15G28    30.12F
RUSSELL        SUNNY     70  23  17 N14G30    30.09S
CONCORDIA      SUNNY     67  26  21 N18G26    30.08R
SALINA         SUNNY     72  30  21 N17G26    30.06S
TOPEKA         SUNNY     67  40  37 NW24G32   30.03R



USA.gov is the U.S. government's official web portal to all federal, state and local government web resources and services.